Regional Weather Roundup
Issued by NWS Sioux Falls, SD

Home | Current Version | Previous Version | Text Only | Print | Product List | Glossary On
Versions: 1 2 3 4 5 6 7 8 9 10 11 12 13 14 15 16 17 18 19 20 21 22 23 24 25 26 27 28 29 30 31 32 33 34 35 36 37 38 39 40 41 42 43 44 45 46 47 48 49 50
000
ASUS43 KFSD 211902
RWRFSD

WEATHER ROUNDUP FOR SE SOUTH DAKOTA/SW MINNESOTA/NW IOWA
NATIONAL WEATHER SERVICE SIOUX FALLS SD
100 PM CST WED FEB 21 2018

NOTE: "FAIR" INDICATES FEW OR NO CLOUDS BELOW 12,000 FEET WITH NO
SIGNIFICANT WEATHER AND OR OBSTRUCTIONS TO VISIBILITY.


SDZ038>040-050-052>070-212000-
SOUTHEAST SOUTH DAKOTA

CITY           SKY/WX    TMP DP  RH WIND       PRES   REMARKS
CHAMBERLAIN    FAIR      16   5  63 E6        30.51F WCI   7
HURON          FAIR      11   1  64 S9        30.58S WCI  -2
MADISON        FAIR      10   1  67 SW8       30.55F WCI  -1
MITCHELL       FAIR      16   2  54 S10       30.59F WCI   4
SIOUX FALLS    FAIR      18   1  47 CALM      30.57F
WINNER         FAIR      17   3  54 S13       30.46F WCI   4
YANKTON        FAIR      16   1  51 S9        30.60F WCI   4
$$

MNZ071-072-080-081-089-090-097-098-212000-
SOUTHWEST MINNESOTA

CITY           SKY/WX    TMP DP  RH WIND       PRES   REMARKS
FAIRMONT       FAIR      18   5  57 SW6       30.63S WCI  10
JACKSON        FAIR      16   1  53 W6        30.59F WCI   7
LUVERNE        FAIR      12   3  67 CALM      30.60F
MARSHALL       FAIR      17   4  56 W10       30.59F WCI   5
MONTEVIDEO     FAIR      19   1  45 W6        30.60F WCI  11
PIPESTONE      FAIR       9   0  66 W7        30.56S WCI  -3
REDWOOD FALLS  FAIR      14   0  53 W7        30.61F WCI   4
TRACY          FAIR      17   6  62 SW8       30.57F WCI   7
WORTHINGTON    FAIR      19   3  49 W10       30.57F WCI   7
$$

IAZ001>003-012>014-020>022-031-032-NEZ013-014-SDZ071-212000-
NORTHWEST IOWA

CITY           SKY/WX    TMP DP  RH WIND       PRES   REMARKS
CHEROKEE       FAIR      20   7  58 S3        30.62F
DENISON        FAIR      19   9  63 CALM      30.63F
ESTHERVILLE    FAIR      15   3  59 CALM      30.60F
LE MARS        FAIR      14   5  67 S6        30.63F WCI   5
ORANGE CITY    FAIR      14   9  79 S3        30.60F
SHELDON        FAIR      14   7  73 S10       30.59F WCI   1
SIOUX CITY     FAIR      18   6  59 CALM      30.63F
SPENCER        MIX PCPN  16   7  67 VRB5      30.61F WCI   9
STORM LAKE     FAIR      18   9  68 S5        30.60F WCI  11
$$

ABBREVIATIONS USED IN REMARKS
   TC - TEMPERATURE IN CELSIUS
  WCI - WIND CHILL INDEX
   HX - HEAT INDEX
  VSB - VISIBILITY





USA.gov is the U.S. government's official web portal to all federal, state and local government web resources and services.